TIANLIAN 2-04

Last updated on Thu Oct 30 2025 00:02:52 GMT+0000 (Coordinated Universal Time)

1 63361U 25062A 25302.48693779 -.00000133 00000+0 00000+0 0 9995 2 63361 4.9725 277.6081 0034241 358.1527 17.6563 1.00271506 2297
UTC large
Height (km)
Speed (km/s)
/
Latitude / Longitude
Inclination (degrees)
Orbital Period (minutes)
Azimuth
Elevation
Range (km)
Doppler Factor

Next 0 passes for location: London (51.5072 / 0.1276)

Sorry there are no passes over London.